Location: Limoges
(45.8354°N, 1.2645°E)
Time: 10:49:56
(UTC+01:00)

Transit 4A - All Passes

Search period start: 25 February 2024 00:00
Search period end: 06 March 2024 00:00
Orbit: 869 x 974 km, 66.8° (Epoch: 24 February)

Date Brightness Start Highest point End Pass type
(mag) Time Alt. Az. Time Alt. Az. Time Alt. Az.
25 Feb - 01:22:02 10° S 01:27:24 32° ESE 01:32:41 10° NE visible
25 Feb - 03:07:28 10° SW 03:13:31 53° NW 03:19:25 10° NNE visible
25 Feb - 04:57:37 10° WNW 05:01:16 16° NNW 05:04:52 10° N visible
25 Feb - 08:36:07 10° N 08:39:40 16° NNE 08:43:10 10° ENE daylight
25 Feb - 10:21:36 10° NNW 10:27:23 54° NE 10:33:04 10° SE daylight
25 Feb - 12:08:30 10° NW 12:13:22 28° WSW 12:18:12 10° SSW daylight
26 Feb - 01:30:27 10° S 01:36:18 45° ESE 01:42:03 10° NE visible
26 Feb - 03:17:01 10° WSW 03:22:44 39° NW 03:28:23 10° NNE visible
26 Feb - 05:08:05 10° NW 05:10:52 13° NNW 05:13:38 10° N visible
26 Feb - 08:44:57 10° NNW 08:49:11 20° NNE 08:53:22 10° E daylight
26 Feb - 10:30:39 10° NNW 10:36:33 76° ENE 10:42:20 10° SE daylight
26 Feb - 12:18:14 10° WNW 12:22:10 19° WSW 12:26:05 10° SSW daylight
26 Feb - 23:59:01 10° ESE 00:00:04 10° E 00:01:07 10° E night (unlit)
27 Feb - 01:39:10 10° SSW 01:45:18 65° ESE 01:51:17 10° NE visible
27 Feb - 03:26:45 10° WSW 03:32:04 30° NW 03:37:18 10° NNE visible
27 Feb - 05:18:47 10° NNW 05:20:32 11° NNW 05:22:17 10° N visible
27 Feb - 07:09:19 10° N 07:09:58 10° NNE 07:10:37 10° NNE visible
27 Feb - 08:53:50 10° NNW 08:58:38 25° NE 09:03:23 10° E daylight
27 Feb - 10:39:44 10° NW 10:45:37 77° WSW 10:51:24 10° SSE daylight
27 Feb - 12:28:44 10° W 12:30:54 12° W 12:33:04 10° WSW daylight
28 Feb - 00:05:05 10° SE 00:08:47 17° ESE 00:12:26 10° ENE night (unlit)
28 Feb - 01:48:08 10° SSW 01:54:21 90° N 02:00:25 10° NNE visible
28 Feb - 03:36:41 10° W 03:41:28 23° NW 03:46:12 10° NNE visible
28 Feb - 07:17:39 10° N 07:19:40 12° NNE 07:21:41 10° NE daylight
28 Feb - 09:02:44 10° NNW 09:08:01 33° NE 09:13:12 10° ESE daylight
28 Feb - 10:48:56 10° NW 10:54:36 53° WSW 11:00:13 10° S daylight
29 Feb - 00:12:44 10° SSE 00:17:35 24° ESE 00:22:21 10° NE night (unlit)
29 Feb - 01:57:19 10° SW 02:03:27 66° NW 02:09:28 10° NNE visible
29 Feb - 03:46:49 10° WNW 03:50:57 18° NNW 03:55:02 10° NNE visible
29 Feb - 07:26:21 10° N 07:29:19 14° NNE 07:32:15 10° NE daylight
29 Feb - 09:11:41 10° NNW 09:17:18 44° NE 09:22:49 10° ESE daylight
29 Feb - 10:58:14 10° NW 11:03:32 36° WSW 11:08:46 10° S daylight
01 Mar - 00:20:54 10° S 00:26:26 35° ESE 00:31:52 10° NE night (unlit)
01 Mar - 02:06:42 10° WSW 02:12:39 48° NW 02:18:28 10° NNE visible
01 Mar - 03:57:08 10° WNW 04:00:31 15° NNW 04:03:51 10° N visible
01 Mar - 07:35:08 10° N 07:38:54 17° NNE 07:42:36 10° ENE daylight
01 Mar - 09:20:41 10° NNW 09:26:30 60° NE 09:32:14 10° SE daylight
01 Mar - 11:07:45 10° NW 11:12:22 25° WSW 11:16:58 10° SSW daylight
02 Mar - 00:29:25 10° S 00:35:22 51° ESE 00:41:12 10° NE visible
02 Mar - 02:16:19 10° WSW 02:21:55 36° NW 02:27:25 10° NNE visible
02 Mar - 04:07:40 10° NW 04:10:08 12° NNW 04:12:35 10° N visible
02 Mar - 07:43:59 10° NNW 07:48:24 21° NE 07:52:45 10° E daylight
02 Mar - 09:29:44 10° NNW 09:35:38 84° ENE 09:41:27 10° SSE daylight
02 Mar - 11:17:38 10° WNW 11:21:09 17° WSW 11:24:40 10° SW daylight
02 Mar - 22:56:46 10° ESE 22:59:02 12° ESE 23:01:18 10° E night (unlit)
03 Mar - 00:38:12 10° SSW 00:44:22 73° ESE 00:50:23 10° NE visible
03 Mar - 02:26:06 10° W 02:31:16 27° NW 02:36:20 10° NNE visible
03 Mar - 04:18:30 10° NNW 04:19:49 11° NNW 04:21:08 10° N visible
03 Mar - 06:08:06 10° N 06:09:15 11° NNE 06:10:24 10° NNE visible
03 Mar - 07:52:52 10° NNW 07:57:49 27° NE 08:02:43 10° E daylight
03 Mar - 09:38:51 10° NW 09:44:41 69° WSW 09:50:25 10° SSE daylight
03 Mar - 11:28:59 10° W 11:29:52 10° W 11:30:45 10° WSW daylight
03 Mar - 23:03:40 10° SSE 23:07:47 19° ESE 23:11:50 10° ENE night (unlit)
04 Mar - 00:47:14 10° SW 00:53:26 82° WNW 00:59:29 10° NNE visible
04 Mar - 02:36:06 10° W 02:40:41 21° NW 02:45:11 10° NNE visible
04 Mar - 06:16:37 10° N 06:18:56 12° NNE 06:21:14 10° NE visible
04 Mar - 08:01:47 10° NNW 08:07:10 35° NE 08:12:28 10° ESE daylight
04 Mar - 09:48:05 10° NW 09:53:38 47° WSW 09:59:09 10° S daylight
04 Mar - 23:11:31 10° SSE 23:16:36 27° ESE 23:21:35 10° NE night (unlit)
05 Mar - 00:56:30 10° SW 01:02:34 59° NW 01:08:31 10° NNE visible
05 Mar - 02:46:18 10° WNW 02:50:11 17° NNW 02:54:02 10° N visible
05 Mar - 06:25:21 10° N 06:28:34 15° NNE 06:31:44 10° ENE visible
05 Mar - 08:10:45 10° NNW 08:16:25 48° NE 08:22:01 10° SE daylight
05 Mar - 09:57:26 10° NW 10:02:32 32° WSW 10:07:37 10° S daylight
05 Mar - 23:19:48 10° S 23:25:28 39° ESE 23:31:02 10° NE night (unlit)
